Location: Unspecified
(0.0000°N, 0.0000°E)
Time: 09:45:33
(UTC+02:00)

Haruka - Pass Details

Date: 24 June 2018
Orbit: 537 x 21218 km, 31.3° (Epoch: 21 July)

Event Time Altitude Azimuth Distance (km) Brightness Sun altitude
Exits shadow 02:16:58 34° 132° (SE) 9,179 8.1 -66.3°
Drops below altitude 10° 06:20:36 10° 60° (ENE) 20,217 11.3 -23.2°
Sets 06:43:04 0° 59° (ENE) 18,122 11.7 -18.1°
